Year,Month,Day,Hour,Minute,Value (Times are PST for temperature in C)
2013,05,04,00,00,10.60
2013,05,04,00,01,10.60
2013,05,04,00,02,10.50
2013,05,04,00,03,10.50
2013,05,04,00,04,10.50
2013,05,04,00,05,10.50
2013,05,04,00,06,10.50
2013,05,04,00,07,10.40
2013,05,04,00,08,10.40
2013,05,04,00,09,10.40
2013,05,04,00,10,10.40
2013,05,04,00,11,10.40
2013,05,04,00,12,10.40
2013,05,04,00,13,10.30
2013,05,04,00,14,10.30
2013,05,04,00,15,10.30
2013,05,04,00,16,10.30
2013,05,04,00,17,10.30
2013,05,04,00,18,10.30
2013,05,04,00,19,10.30
2013,05,04,00,20,10.30
2013,05,04,00,21,10.30
2013,05,04,00,22,10.30
2013,05,04,00,23,10.20
2013,05,04,00,24,10.20
2013,05,04,00,25,10.20
2013,05,04,00,26,10.20
2013,05,04,00,27,10.20
2013,05,04,00,28,10.20
2013,05,04,00,29,10.20
2013,05,04,00,30,10.20
2013,05,04,00,31,10.20
2013,05,04,00,32,10.10
2013,05,04,00,33,10.10
2013,05,04,00,34,10.10
2013,05,04,00,35,10.10
2013,05,04,00,36,10.10
2013,05,04,00,37,10.10
2013,05,04,00,38,10.10
2013,05,04,00,39,10.10
2013,05,04,00,40,10.10
2013,05,04,00,41,10.00
2013,05,04,00,42,10.00
2013,05,04,00,43,10.00
2013,05,04,00,44,10.00
2013,05,04,00,45,10.00
2013,05,04,00,46,9.90
2013,05,04,00,47,9.90
2013,05,04,00,48,9.90
2013,05,04,00,49,9.90
2013,05,04,00,50,9.90
2013,05,04,00,51,9.90
2013,05,04,00,52,9.80
2013,05,04,00,53,9.80
2013,05,04,00,54,9.80
2013,05,04,00,55,9.80
2013,05,04,00,56,9.80
2013,05,04,00,57,9.80
2013,05,04,00,58,9.80
2013,05,04,00,59,9.80
2013,05,04,01,00,9.70
2013,05,04,01,01,9.70
2013,05,04,01,02,9.70
2013,05,04,01,03,9.70
2013,05,04,01,04,9.70
2013,05,04,01,05,9.70
2013,05,04,01,06,9.70
2013,05,04,01,07,9.60
2013,05,04,01,08,9.60
2013,05,04,01,09,9.60
2013,05,04,01,10,9.60
2013,05,04,01,11,9.60
2013,05,04,01,12,9.60
2013,05,04,01,13,9.60
2013,05,04,01,14,9.60
2013,05,04,01,15,9.50
2013,05,04,01,16,9.50
2013,05,04,01,17,9.50
2013,05,04,01,18,9.50
2013,05,04,01,19,9.40
2013,05,04,01,20,9.40
2013,05,04,01,21,9.40
2013,05,04,01,22,9.40
2013,05,04,01,23,9.30
2013,05,04,01,24,9.30
2013,05,04,01,25,9.30
2013,05,04,01,26,9.30
2013,05,04,01,27,9.30
2013,05,04,01,28,9.30
2013,05,04,01,29,9.30
2013,05,04,01,30,9.30
2013,05,04,01,31,9.30
2013,05,04,01,32,9.20
2013,05,04,01,33,9.20
2013,05,04,01,34,9.20
2013,05,04,01,35,9.20
2013,05,04,01,36,9.20
2013,05,04,01,37,9.20
2013,05,04,01,38,9.20
2013,05,04,01,39,9.20
2013,05,04,01,40,9.20
2013,05,04,01,41,9.20
2013,05,04,01,42,9.20
2013,05,04,01,43,9.20
2013,05,04,01,44,9.20
2013,05,04,01,45,9.20
2013,05,04,01,46,9.20
2013,05,04,01,47,9.20
2013,05,04,01,48,9.20
2013,05,04,01,49,9.20
2013,05,04,01,50,9.10
2013,05,04,01,51,9.10
2013,05,04,01,52,9.10
2013,05,04,01,53,9.10
2013,05,04,01,54,9.10
2013,05,04,01,55,9.10
2013,05,04,01,56,9.10
2013,05,04,01,57,9.00
2013,05,04,01,58,9.00
2013,05,04,01,59,9.00
2013,05,04,02,00,8.90
2013,05,04,02,01,8.90
2013,05,04,02,02,8.90
2013,05,04,02,03,8.90
2013,05,04,02,04,8.80
2013,05,04,02,05,8.80
2013,05,04,02,06,8.80
2013,05,04,02,07,8.80
2013,05,04,02,08,8.80
2013,05,04,02,09,8.80
2013,05,04,02,10,8.70
2013,05,04,02,11,8.70
2013,05,04,02,12,8.70
2013,05,04,02,13,8.70
2013,05,04,02,14,8.70
2013,05,04,02,15,8.60
2013,05,04,02,16,8.60
2013,05,04,02,17,8.60
2013,05,04,02,18,8.60
2013,05,04,02,19,8.50
2013,05,04,02,20,8.50
2013,05,04,02,21,8.50
2013,05,04,02,22,8.40
2013,05,04,02,23,8.40
2013,05,04,02,24,8.40
2013,05,04,02,25,8.40
2013,05,04,02,26,8.40
2013,05,04,02,27,8.40
2013,05,04,02,28,8.40
2013,05,04,02,29,8.40
2013,05,04,02,30,8.40
2013,05,04,02,31,8.40
2013,05,04,02,32,8.50
2013,05,04,02,33,8.50
2013,05,04,02,34,8.50
2013,05,04,02,35,8.50
2013,05,04,02,36,8.50
2013,05,04,02,37,8.50
2013,05,04,02,38,8.40
2013,05,04,02,39,8.40
2013,05,04,02,40,8.40
2013,05,04,02,41,8.40
2013,05,04,02,42,8.40
2013,05,04,02,43,8.30
2013,05,04,02,44,8.30
2013,05,04,02,45,8.30
2013,05,04,02,46,8.30
2013,05,04,02,47,8.20
2013,05,04,02,48,8.20
2013,05,04,02,49,8.20
2013,05,04,02,50,8.20
2013,05,04,02,51,8.20
2013,05,04,02,52,8.20
2013,05,04,02,53,8.20
2013,05,04,02,54,8.20
2013,05,04,02,55,8.20
2013,05,04,02,56,8.20
2013,05,04,02,57,8.10
2013,05,04,02,58,8.10
2013,05,04,02,59,8.10
2013,05,04,03,00,8.10
2013,05,04,03,01,8.10
2013,05,04,03,02,8.10
2013,05,04,03,03,8.10
2013,05,04,03,04,8.10
2013,05,04,03,05,8.10
2013,05,04,03,06,8.10
2013,05,04,03,07,8.10
2013,05,04,03,08,8.10
2013,05,04,03,09,8.10
2013,05,04,03,10,8.10
2013,05,04,03,11,8.10
2013,05,04,03,12,8.10
2013,05,04,03,13,8.10
2013,05,04,03,14,8.10
2013,05,04,03,15,8.10
2013,05,04,03,16,8.10
2013,05,04,03,17,8.00
2013,05,04,03,18,8.00
2013,05,04,03,19,8.00
2013,05,04,03,20,7.90
2013,05,04,03,21,7.90
2013,05,04,03,22,7.90
2013,05,04,03,23,7.90
2013,05,04,03,24,7.80
2013,05,04,03,25,7.80
2013,05,04,03,26,7.80
2013,05,04,03,27,7.80
2013,05,04,03,28,7.80
2013,05,04,03,29,7.80
2013,05,04,03,30,7.80
2013,05,04,03,31,7.80
2013,05,04,03,32,7.80
2013,05,04,03,33,7.80
2013,05,04,03,34,7.80
2013,05,04,03,35,7.80
2013,05,04,03,36,7.80
2013,05,04,03,37,7.80
2013,05,04,03,38,7.80
2013,05,04,03,39,7.70
2013,05,04,03,40,7.70
2013,05,04,03,41,7.70
2013,05,04,03,42,7.70
2013,05,04,03,43,7.70
2013,05,04,03,44,7.70
2013,05,04,03,49,7.60
2013,05,04,03,50,7.60
2013,05,04,03,51,7.60
2013,05,04,03,52,7.50
2013,05,04,03,53,7.50
2013,05,04,03,54,7.50
2013,05,04,03,55,7.50
2013,05,04,03,56,7.50
2013,05,04,03,57,7.50
2013,05,04,03,58,7.50
2013,05,04,03,59,7.40
2013,05,04,04,00,7.40
2013,05,04,04,01,7.40
2013,05,04,04,02,7.40
2013,05,04,04,03,7.40
2013,05,04,04,04,7.30
2013,05,04,04,05,7.30
2013,05,04,04,06,7.30
2013,05,04,04,07,7.30
2013,05,04,04,08,7.30
2013,05,04,04,09,7.30
2013,05,04,04,10,7.40
2013,05,04,04,11,7.40
2013,05,04,04,12,7.40
2013,05,04,04,13,7.40
2013,05,04,04,14,7.40
2013,05,04,04,15,7.40
2013,05,04,04,16,7.40
2013,05,04,04,17,7.40
2013,05,04,04,18,7.40
2013,05,04,04,19,7.30
2013,05,04,04,20,7.30
2013,05,04,04,21,7.30
2013,05,04,04,22,7.30
2013,05,04,04,23,7.20
2013,05,04,04,24,7.20
2013,05,04,04,25,7.20
2013,05,04,04,26,7.20
2013,05,04,04,27,7.20
2013,05,04,04,28,7.20
2013,05,04,04,29,7.20
2013,05,04,04,30,7.20
2013,05,04,04,31,7.20
2013,05,04,04,32,7.20
2013,05,04,04,33,7.20
2013,05,04,04,34,7.20
2013,05,04,04,35,7.20
2013,05,04,04,36,7.20
2013,05,04,04,37,7.20
2013,05,04,04,38,7.20
2013,05,04,04,39,7.20
2013,05,04,04,40,7.20
2013,05,04,04,41,7.20
2013,05,04,04,42,7.20
2013,05,04,04,43,7.20
2013,05,04,04,44,7.20
2013,05,04,04,45,7.20
2013,05,04,04,46,7.20
2013,05,04,04,47,7.20
2013,05,04,04,48,7.20
2013,05,04,04,49,7.20
2013,05,04,04,50,7.20
2013,05,04,04,51,7.20
2013,05,04,04,52,7.20
2013,05,04,04,53,7.20
2013,05,04,04,54,7.20
2013,05,04,04,55,7.20
2013,05,04,04,56,7.20
2013,05,04,04,57,7.10
2013,05,04,04,58,7.10
2013,05,04,04,59,7.10
2013,05,04,05,00,7.10
2013,05,04,05,01,7.10
2013,05,04,05,02,7.10
2013,05,04,05,03,7.00
2013,05,04,05,04,7.00
2013,05,04,05,05,7.00
2013,05,04,05,06,7.00
2013,05,04,05,07,7.00
2013,05,04,05,08,7.00
2013,05,04,05,09,7.00
2013,05,04,05,10,7.00
2013,05,04,05,11,6.90
2013,05,04,05,12,6.90
2013,05,04,05,13,6.90
2013,05,04,05,14,6.90
2013,05,04,05,15,6.90
2013,05,04,05,16,6.90
2013,05,04,05,17,6.90
2013,05,04,05,18,6.90
2013,05,04,05,19,6.90
2013,05,04,05,20,6.90
2013,05,04,05,21,6.80
2013,05,04,05,22,6.80
2013,05,04,05,23,6.80
2013,05,04,05,24,6.80
2013,05,04,05,25,6.80
2013,05,04,05,26,6.80
2013,05,04,05,27,6.80
2013,05,04,05,28,6.80
2013,05,04,05,29,6.80
2013,05,04,05,30,6.80
2013,05,04,05,31,6.80
2013,05,04,05,32,6.80
2013,05,04,05,33,6.80
2013,05,04,05,34,6.80
2013,05,04,05,35,6.70
2013,05,04,05,36,6.80
2013,05,04,05,37,6.80
2013,05,04,05,38,6.80
2013,05,04,05,39,6.80
2013,05,04,05,40,6.80
2013,05,04,05,41,6.80
2013,05,04,05,42,6.80
2013,05,04,05,43,6.80
2013,05,04,05,44,6.80
2013,05,04,05,45,6.80
2013,05,04,05,46,6.90
2013,05,04,05,47,6.90
2013,05,04,05,48,6.90
2013,05,04,05,49,7.00
2013,05,04,05,50,7.00
2013,05,04,05,51,7.00
2013,05,04,05,52,7.10
2013,05,04,05,53,7.10
2013,05,04,05,54,7.10
2013,05,04,05,55,7.20
2013,05,04,05,56,7.20
2013,05,04,05,57,7.20
2013,05,04,05,58,7.20
2013,05,04,05,59,7.20
2013,05,04,06,00,7.30
2013,05,04,06,01,7.30
2013,05,04,06,02,7.30
2013,05,04,06,03,7.30
2013,05,04,06,04,7.40
2013,05,04,06,05,7.40
2013,05,04,06,06,7.40
2013,05,04,06,07,7.50
2013,05,04,06,08,7.50
2013,05,04,06,09,7.50
2013,05,04,06,10,7.50
2013,05,04,06,11,7.50
2013,05,04,06,12,7.60
2013,05,04,06,13,7.60
2013,05,04,06,14,7.70
2013,05,04,06,15,7.70
2013,05,04,06,16,7.70
2013,05,04,06,17,7.70
2013,05,04,06,18,7.80
2013,05,04,06,19,7.80
2013,05,04,06,20,7.90
2013,05,04,06,21,7.90
2013,05,04,06,22,7.90
2013,05,04,06,23,7.90
2013,05,04,06,24,7.90
2013,05,04,06,25,7.90
2013,05,04,06,26,7.90
2013,05,04,06,27,7.90
2013,05,04,06,28,7.90
2013,05,04,06,29,8.00
2013,05,04,06,30,8.10
2013,05,04,06,31,8.10
2013,05,04,06,32,8.10
2013,05,04,06,33,8.20
2013,05,04,06,34,8.20
2013,05,04,06,35,8.30
2013,05,04,06,36,8.30
2013,05,04,06,37,8.30
2013,05,04,06,38,8.40
2013,05,04,06,39,8.40
2013,05,04,06,40,8.40
2013,05,04,06,41,8.40
2013,05,04,06,42,8.40
2013,05,04,06,43,8.50
2013,05,04,06,44,8.50
2013,05,04,06,45,8.60
2013,05,04,06,46,8.60
2013,05,04,06,47,8.60
2013,05,04,06,48,8.70
2013,05,04,06,49,8.70
2013,05,04,06,50,8.80
2013,05,04,06,51,8.90
2013,05,04,06,52,8.90
2013,05,04,06,53,9.00
2013,05,04,06,54,9.10
2013,05,04,06,55,9.10
2013,05,04,06,56,9.20
2013,05,04,06,57,9.20
2013,05,04,06,58,9.30
2013,05,04,06,59,9.40
2013,05,04,07,00,9.40
2013,05,04,07,01,9.50
2013,05,04,07,02,9.60
2013,05,04,07,03,9.60
2013,05,04,07,04,9.60
2013,05,04,07,05,9.70
2013,05,04,07,06,9.70
2013,05,04,07,07,9.80
2013,05,04,07,08,9.80
2013,05,04,07,09,9.90
2013,05,04,07,10,9.90
2013,05,04,07,11,9.90
2013,05,04,07,12,10.00
2013,05,04,07,13,10.10
2013,05,04,07,14,10.10
2013,05,04,07,15,10.10
2013,05,04,07,16,10.10
2013,05,04,07,17,10.20
2013,05,04,07,18,10.20
2013,05,04,07,19,10.30
2013,05,04,07,20,10.40
2013,05,04,07,21,10.40
2013,05,04,07,22,10.50
2013,05,04,07,23,10.60
2013,05,04,07,24,10.60
2013,05,04,07,25,10.70
2013,05,04,07,26,10.80
2013,05,04,07,27,10.80
2013,05,04,07,28,10.90
2013,05,04,07,29,11.00
2013,05,04,07,30,11.10
2013,05,04,07,31,11.10
2013,05,04,07,32,11.20
2013,05,04,07,33,11.20
2013,05,04,07,34,11.30
2013,05,04,07,35,11.40
2013,05,04,07,36,11.40
2013,05,04,07,37,11.50
2013,05,04,07,38,11.60
2013,05,04,07,39,11.70
2013,05,04,07,40,11.80
2013,05,04,07,41,11.80
2013,05,04,07,42,11.90
2013,05,04,07,43,12.00
2013,05,04,07,44,12.00
2013,05,04,07,45,12.10
2013,05,04,07,46,12.10
2013,05,04,07,47,12.20
2013,05,04,07,48,12.30
2013,05,04,07,49,12.40
2013,05,04,07,50,12.40
2013,05,04,07,51,12.50
2013,05,04,07,52,12.60
2013,05,04,07,53,12.70
2013,05,04,07,54,12.70
2013,05,04,07,55,12.80
2013,05,04,07,56,12.90
2013,05,04,07,57,13.00
2013,05,04,07,58,13.00
2013,05,04,07,59,13.10
2013,05,04,08,00,13.20
2013,05,04,08,01,13.30
2013,05,04,08,02,13.40
2013,05,04,08,03,13.40
2013,05,04,08,04,13.40
2013,05,04,08,05,13.50
2013,05,04,08,06,13.60
2013,05,04,08,07,13.60
2013,05,04,08,08,13.70
2013,05,04,08,09,13.70
2013,05,04,08,10,13.80
2013,05,04,08,11,13.80
2013,05,04,08,12,13.90
2013,05,04,08,13,14.00
2013,05,04,08,14,14.00
2013,05,04,08,15,14.10
2013,05,04,08,16,14.20
2013,05,04,08,17,14.20
2013,05,04,08,18,14.30
2013,05,04,08,19,14.40
2013,05,04,08,20,14.40
2013,05,04,08,21,14.50
2013,05,04,08,22,14.60
2013,05,04,08,23,14.70
2013,05,04,08,24,14.80
2013,05,04,08,25,14.90
2013,05,04,08,26,15.00
2013,05,04,08,27,15.00
2013,05,04,08,28,15.00
2013,05,04,08,29,15.00
2013,05,04,08,30,15.20
2013,05,04,08,31,15.30
2013,05,04,08,32,15.40
2013,05,04,08,33,15.50
2013,05,04,08,34,15.60
2013,05,04,08,35,15.70
2013,05,04,08,36,15.80
2013,05,04,08,37,15.90
2013,05,04,08,38,15.90
2013,05,04,08,39,16.00
2013,05,04,08,40,16.10
2013,05,04,08,41,16.20
2013,05,04,08,42,16.30
2013,05,04,08,43,16.40
2013,05,04,08,44,16.50
2013,05,04,08,45,16.60
2013,05,04,08,46,16.80
2013,05,04,08,47,16.90
2013,05,04,08,48,16.90
2013,05,04,08,49,17.00
2013,05,04,08,50,17.00
2013,05,04,08,51,17.10
2013,05,04,08,52,17.10
2013,05,04,08,53,17.20
2013,05,04,08,54,17.20
2013,05,04,08,55,17.30
2013,05,04,08,56,17.30
2013,05,04,08,57,17.30
2013,05,04,08,58,17.40
2013,05,04,08,59,17.50
2013,05,04,09,00,17.50
2013,05,04,09,01,17.60
2013,05,04,09,02,17.70
2013,05,04,09,03,17.70
2013,05,04,09,04,17.70
2013,05,04,09,05,17.80
2013,05,04,09,06,17.80
2013,05,04,09,07,17.80
2013,05,04,09,08,17.80
2013,05,04,09,09,17.80
2013,05,04,09,10,17.90
2013,05,04,09,11,17.90
2013,05,04,09,12,18.00
2013,05,04,09,13,18.00
2013,05,04,09,14,18.10
2013,05,04,09,15,18.10
2013,05,04,09,16,18.10
2013,05,04,09,17,18.20
2013,05,04,09,18,18.20
2013,05,04,09,19,18.20
2013,05,04,09,20,18.30
2013,05,04,09,21,18.40
2013,05,04,09,22,18.40
2013,05,04,09,23,18.50
2013,05,04,09,24,18.60
2013,05,04,09,25,18.70
2013,05,04,09,26,18.70
2013,05,04,09,27,18.80
2013,05,04,09,28,18.80
2013,05,04,09,29,18.80
2013,05,04,09,30,18.70
2013,05,04,09,31,18.60
2013,05,04,09,32,18.50
2013,05,04,09,33,18.40
2013,05,04,09,34,18.30
2013,05,04,09,35,18.30
2013,05,04,09,36,18.30
2013,05,04,09,37,18.40
2013,05,04,09,38,18.40
2013,05,04,09,39,18.40
2013,05,04,09,40,18.50
2013,05,04,09,41,18.50
2013,05,04,09,42,18.50
2013,05,04,09,43,18.40
2013,05,04,09,44,18.50
2013,05,04,09,45,18.50
2013,05,04,09,46,18.60
2013,05,04,09,47,18.70
2013,05,04,09,48,18.70
2013,05,04,09,49,18.70
2013,05,04,09,50,18.70
2013,05,04,09,51,18.70
2013,05,04,09,52,18.70
2013,05,04,09,53,18.80
2013,05,04,09,54,18.80
2013,05,04,09,55,18.90
2013,05,04,09,56,19.00
2013,05,04,09,57,19.10
2013,05,04,09,58,19.20
2013,05,04,09,59,19.30
2013,05,04,10,00,19.30
2013,05,04,10,01,19.40
2013,05,04,10,02,19.40
2013,05,04,10,03,19.40
2013,05,04,10,04,19.40
2013,05,04,10,05,19.40
2013,05,04,10,06,19.40
2013,05,04,10,07,19.30
2013,05,04,10,08,19.30
2013,05,04,10,09,19.40
2013,05,04,10,10,19.40
2013,05,04,10,11,19.50
2013,05,04,10,12,19.50
2013,05,04,10,13,19.60
2013,05,04,10,14,19.60
2013,05,04,10,15,19.70
2013,05,04,10,16,19.70
2013,05,04,10,17,19.70
2013,05,04,10,18,19.70
2013,05,04,10,19,19.80
2013,05,04,10,20,19.80
2013,05,04,10,21,19.80
2013,05,04,10,22,19.90
2013,05,04,10,23,19.90
2013,05,04,10,24,20.00
2013,05,04,10,25,20.00
2013,05,04,10,26,20.00
2013,05,04,10,27,20.10
2013,05,04,10,28,20.10
2013,05,04,10,29,20.10
2013,05,04,10,30,20.20
2013,05,04,10,31,20.30
2013,05,04,10,32,20.30
2013,05,04,10,33,20.40
2013,05,04,10,34,20.50
2013,05,04,10,35,20.60
2013,05,04,10,36,20.70
2013,05,04,10,37,20.70
2013,05,04,10,38,20.80
2013,05,04,10,39,20.80
2013,05,04,10,40,20.80
2013,05,04,10,41,20.80
2013,05,04,10,42,20.70
2013,05,04,10,43,20.70
2013,05,04,10,44,20.70
2013,05,04,10,45,20.70
2013,05,04,10,46,20.70
2013,05,04,10,47,20.70
2013,05,04,10,48,20.70
2013,05,04,10,49,20.80
2013,05,04,10,50,20.80
2013,05,04,10,51,20.90
2013,05,04,10,52,21.00
2013,05,04,10,53,21.00
2013,05,04,10,54,21.10
2013,05,04,10,55,21.10
2013,05,04,10,56,21.00
2013,05,04,10,57,20.90
2013,05,04,10,58,20.80
2013,05,04,10,59,20.70
2013,05,04,11,00,20.70
2013,05,04,11,01,20.60
2013,05,04,11,02,20.70
2013,05,04,11,03,20.70
2013,05,04,11,04,20.80
2013,05,04,11,05,20.80
2013,05,04,11,06,20.80
2013,05,04,11,07,20.90
2013,05,04,11,08,20.90
2013,05,04,11,09,20.90
2013,05,04,11,10,20.90
2013,05,04,11,11,20.90
2013,05,04,11,12,20.80
2013,05,04,11,13,20.90
2013,05,04,11,14,20.90
2013,05,04,11,15,20.90
2013,05,04,11,16,20.80
2013,05,04,11,17,20.80
2013,05,04,11,18,20.80
2013,05,04,11,19,20.70
2013,05,04,11,20,20.80
2013,05,04,11,21,20.80
2013,05,04,11,22,20.80
2013,05,04,11,23,20.90
2013,05,04,11,24,20.90
2013,05,04,11,25,20.90
2013,05,04,11,26,20.90
2013,05,04,11,27,21.00
2013,05,04,11,28,21.00
2013,05,04,11,29,21.00
2013,05,04,11,30,21.00
2013,05,04,11,31,21.10
2013,05,04,11,32,21.10
2013,05,04,11,33,21.10
2013,05,04,11,34,21.20
2013,05,04,11,35,21.20
2013,05,04,11,36,21.20
2013,05,04,11,37,21.20
2013,05,04,11,38,21.20
2013,05,04,11,39,21.30
2013,05,04,11,40,21.30
2013,05,04,11,41,21.30
2013,05,04,11,42,21.40
2013,05,04,11,43,21.40
2013,05,04,11,44,21.40
2013,05,04,11,45,21.40
2013,05,04,11,46,21.40
2013,05,04,11,47,21.40
2013,05,04,11,48,21.40
2013,05,04,11,49,21.50
2013,05,04,11,50,21.50
2013,05,04,11,51,21.50
2013,05,04,11,52,21.50
2013,05,04,11,53,21.50
2013,05,04,11,54,21.50
2013,05,04,11,55,21.60
2013,05,04,11,56,21.60
2013,05,04,11,57,21.60
2013,05,04,11,58,21.60
2013,05,04,11,59,21.50
2013,05,04,12,00,21.50
2013,05,04,12,01,21.60
2013,05,04,12,02,21.70
2013,05,04,12,03,21.60
2013,05,04,12,04,21.60
2013,05,04,12,05,21.60
2013,05,04,12,06,21.50
2013,05,04,12,07,21.50
2013,05,04,12,08,21.50
2013,05,04,12,09,21.50
2013,05,04,12,10,21.60
2013,05,04,12,11,21.60
2013,05,04,12,12,21.70
2013,05,04,12,13,21.70
2013,05,04,12,14,21.70
2013,05,04,12,15,21.70
2013,05,04,12,16,21.80
2013,05,04,12,17,21.70
2013,05,04,12,18,21.80
2013,05,04,12,19,21.70
2013,05,04,12,20,21.70
2013,05,04,12,21,21.60
2013,05,04,12,22,21.60
2013,05,04,12,23,21.60
2013,05,04,12,24,21.70
2013,05,04,12,25,21.80
2013,05,04,12,26,21.80
2013,05,04,12,27,21.80
2013,05,04,12,28,21.80
2013,05,04,12,29,21.80
2013,05,04,12,30,21.80
2013,05,04,12,31,21.90
2013,05,04,12,32,22.00
2013,05,04,12,33,22.10
2013,05,04,12,34,22.10
2013,05,04,12,35,22.10
2013,05,04,12,36,22.10
2013,05,04,12,37,22.10
2013,05,04,12,38,22.10
2013,05,04,12,39,22.10
2013,05,04,12,40,22.10
2013,05,04,12,41,22.10
2013,05,04,12,42,22.10
2013,05,04,12,43,22.10
2013,05,04,12,44,22.20
2013,05,04,12,45,22.20
2013,05,04,12,46,22.30
2013,05,04,12,47,22.30
2013,05,04,12,48,22.40
2013,05,04,12,49,22.40
2013,05,04,12,50,22.40
2013,05,04,12,51,22.40
2013,05,04,12,52,22.30
2013,05,04,12,53,22.30
2013,05,04,12,54,22.30
2013,05,04,12,55,22.30
2013,05,04,12,56,22.30
2013,05,04,12,57,22.30
2013,05,04,12,58,22.30
2013,05,04,12,59,22.30
2013,05,04,13,00,22.40
2013,05,04,13,01,22.40
2013,05,04,13,02,22.40
2013,05,04,13,03,22.40
2013,05,04,13,04,22.50
2013,05,04,13,05,22.50
2013,05,04,13,06,22.30
2013,05,04,13,07,22.20
2013,05,04,13,08,22.10
2013,05,04,13,09,22.00
2013,05,04,13,10,21.90
2013,05,04,13,11,21.80
2013,05,04,13,12,21.60
2013,05,04,13,13,21.60
2013,05,04,13,14,21.70
2013,05,04,13,15,21.70
2013,05,04,13,16,21.80
2013,05,04,13,17,22.00
2013,05,04,13,18,22.10
2013,05,04,13,19,22.30
2013,05,04,13,20,22.30
2013,05,04,13,21,22.30
2013,05,04,13,22,22.30
2013,05,04,13,23,22.30
2013,05,04,13,24,22.30
2013,05,04,13,25,22.30
2013,05,04,13,26,22.40
2013,05,04,13,27,22.40
2013,05,04,13,28,22.50
2013,05,04,13,29,22.50
2013,05,04,13,30,22.50
2013,05,04,13,31,22.60
2013,05,04,13,32,22.60
2013,05,04,13,33,22.50
2013,05,04,13,34,22.50
2013,05,04,13,35,22.50
2013,05,04,13,36,22.50
2013,05,04,13,37,22.60
2013,05,04,13,38,22.60
2013,05,04,13,39,22.80
2013,05,04,13,40,22.90
2013,05,04,13,41,22.90
2013,05,04,13,42,23.00
2013,05,04,13,43,23.00
2013,05,04,13,44,23.10
2013,05,04,13,45,23.10
2013,05,04,13,46,23.10
2013,05,04,13,47,23.10
2013,05,04,13,48,23.10
2013,05,04,13,49,23.10
2013,05,04,13,50,23.10
2013,05,04,13,51,23.10
2013,05,04,13,52,23.00
2013,05,04,13,53,23.00
2013,05,04,13,54,23.10
2013,05,04,13,55,23.10
2013,05,04,13,56,23.10
2013,05,04,13,57,23.10
2013,05,04,13,58,23.10
2013,05,04,13,59,23.10
2013,05,04,14,00,23.10
2013,05,04,14,01,23.10
2013,05,04,14,02,23.20
2013,05,04,14,03,23.30
2013,05,04,14,04,23.30
2013,05,04,14,05,23.40
2013,05,04,14,06,23.50
2013,05,04,14,07,23.50
2013,05,04,14,08,23.50
2013,05,04,14,09,23.50
2013,05,04,14,10,23.60
2013,05,04,14,11,23.70
2013,05,04,14,12,23.70
2013,05,04,14,13,23.80
2013,05,04,14,14,23.90
2013,05,04,14,15,24.00
2013,05,04,14,16,24.10
2013,05,04,14,17,24.10
2013,05,04,14,18,24.20
2013,05,04,14,19,24.10
2013,05,04,14,20,24.00
2013,05,04,14,21,24.00
2013,05,04,14,22,24.00
2013,05,04,14,23,24.10
2013,05,04,14,24,24.20
2013,05,04,14,25,24.20
2013,05,04,14,26,24.30
2013,05,04,14,27,24.30
2013,05,04,14,28,24.40
2013,05,04,14,29,24.40
2013,05,04,14,30,24.30
2013,05,04,14,31,24.20
2013,05,04,14,32,24.20
2013,05,04,14,33,24.20
2013,05,04,14,34,24.20
2013,05,04,14,35,24.30
2013,05,04,14,36,24.30
2013,05,04,14,37,24.30
2013,05,04,14,38,24.30
2013,05,04,14,39,24.40
2013,05,04,14,40,24.40
2013,05,04,14,41,24.40
2013,05,04,14,42,24.40
2013,05,04,14,43,24.50
2013,05,04,14,44,24.60
2013,05,04,14,45,24.60
2013,05,04,14,46,24.70
2013,05,04,14,47,24.70
2013,05,04,14,48,24.70
2013,05,04,14,49,24.70
2013,05,04,14,50,24.70
2013,05,04,14,51,24.70
2013,05,04,14,52,24.60
2013,05,04,14,53,24.60
2013,05,04,14,54,24.60
2013,05,04,14,55,24.60
2013,05,04,14,56,24.60
2013,05,04,14,57,24.70
2013,05,04,14,58,24.70
2013,05,04,14,59,24.70
2013,05,04,15,00,24.70
2013,05,04,15,01,24.70
2013,05,04,15,02,24.70
2013,05,04,15,03,24.60
2013,05,04,15,04,24.60
2013,05,04,15,05,24.60
2013,05,04,15,06,24.60
2013,05,04,15,07,24.70
2013,05,04,15,08,24.90
2013,05,04,15,09,25.10
2013,05,04,15,10,25.10
2013,05,04,15,11,25.20
2013,05,04,15,12,25.20
2013,05,04,15,13,25.30
2013,05,04,15,14,25.40
2013,05,04,15,15,25.40
2013,05,04,15,16,25.40
2013,05,04,15,17,25.30
2013,05,04,15,18,25.20
2013,05,04,15,19,25.10
2013,05,04,15,20,25.00
2013,05,04,15,21,24.90
2013,05,04,15,22,24.90
2013,05,04,15,23,24.90
2013,05,04,15,24,24.90
2013,05,04,15,25,24.90
2013,05,04,15,26,24.90
2013,05,04,15,27,25.00
2013,05,04,15,28,25.00
2013,05,04,15,29,25.00
2013,05,04,15,30,25.00
2013,05,04,15,31,25.00
2013,05,04,15,32,25.00
2013,05,04,15,33,25.00
2013,05,04,15,34,25.00
2013,05,04,15,35,25.10
2013,05,04,15,36,25.10
2013,05,04,15,37,25.00
2013,05,04,15,38,25.00
2013,05,04,15,39,25.10
2013,05,04,15,40,25.10
2013,05,04,15,41,25.20
2013,05,04,15,42,25.20
2013,05,04,15,43,25.10
2013,05,04,15,44,25.00
2013,05,04,15,45,25.00
2013,05,04,15,46,24.90
2013,05,04,15,47,24.90
2013,05,04,15,48,24.90
2013,05,04,15,49,24.90
2013,05,04,15,50,24.90
2013,05,04,15,51,24.90
2013,05,04,15,52,24.90
2013,05,04,15,53,24.90
2013,05,04,15,54,24.90
2013,05,04,15,55,24.90
2013,05,04,15,56,24.90
2013,05,04,15,57,24.90
2013,05,04,15,58,24.90
2013,05,04,15,59,25.00
2013,05,04,16,00,25.10
2013,05,04,16,01,25.10
2013,05,04,16,02,25.20
2013,05,04,16,03,25.20
2013,05,04,16,04,25.20
2013,05,04,16,05,25.20
2013,05,04,16,06,25.30
2013,05,04,16,07,25.30
2013,05,04,16,08,25.30
2013,05,04,16,09,25.20
2013,05,04,16,10,25.20
2013,05,04,16,11,25.20
2013,05,04,16,12,25.10
2013,05,04,16,13,25.00
2013,05,04,16,14,25.00
2013,05,04,16,15,25.00
2013,05,04,16,16,25.00
2013,05,04,16,17,25.10
2013,05,04,16,18,25.20
2013,05,04,16,19,25.30
2013,05,04,16,20,25.30
2013,05,04,16,21,25.40
2013,05,04,16,22,25.50
2013,05,04,16,23,25.50
2013,05,04,16,24,25.60
2013,05,04,16,25,25.60
2013,05,04,16,26,25.60
2013,05,04,16,27,25.70
2013,05,04,16,28,25.70
2013,05,04,16,29,25.60
2013,05,04,16,30,25.60
2013,05,04,16,31,25.60
2013,05,04,16,32,25.60
2013,05,04,16,33,25.60
2013,05,04,16,34,25.60
2013,05,04,16,35,25.60
2013,05,04,16,36,25.60
2013,05,04,16,37,25.60
2013,05,04,16,38,25.70
2013,05,04,16,39,25.70
2013,05,04,16,40,25.60
2013,05,04,16,41,25.60
2013,05,04,16,42,25.60
2013,05,04,16,43,25.60
2013,05,04,16,44,25.50
2013,05,04,16,45,25.50
2013,05,04,16,46,25.40
2013,05,04,16,47,25.40
2013,05,04,16,48,25.40
2013,05,04,16,49,25.40
2013,05,04,16,50,25.40
2013,05,04,16,51,25.40
2013,05,04,16,52,25.50
2013,05,04,16,53,25.50
2013,05,04,16,54,25.60
2013,05,04,16,55,25.60
2013,05,04,16,56,25.60
2013,05,04,16,57,25.60
2013,05,04,16,58,25.70
2013,05,04,16,59,25.70
2013,05,04,17,00,25.70
2013,05,04,17,01,25.70
2013,05,04,17,02,25.70
2013,05,04,17,03,25.70
2013,05,04,17,04,25.70
2013,05,04,17,05,25.60
2013,05,04,17,06,25.60
2013,05,04,17,07,25.50
2013,05,04,17,08,25.40
2013,05,04,17,09,25.30
2013,05,04,17,10,25.30
2013,05,04,17,11,25.30
2013,05,04,17,12,25.30
2013,05,04,17,13,25.40
2013,05,04,17,14,25.40
2013,05,04,17,15,25.40
2013,05,04,17,16,25.40
2013,05,04,17,17,25.40
2013,05,04,17,18,25.40
2013,05,04,17,19,25.40
2013,05,04,17,20,25.40
2013,05,04,17,21,25.40
2013,05,04,17,22,25.40
2013,05,04,17,23,25.40
2013,05,04,17,24,25.40
2013,05,04,17,25,25.30
2013,05,04,17,26,25.30
2013,05,04,17,27,25.30
2013,05,04,17,28,25.30
2013,05,04,17,29,25.30
2013,05,04,17,30,25.20
2013,05,04,17,31,25.20
2013,05,04,17,32,25.20
2013,05,04,17,33,25.20
2013,05,04,17,34,25.20
2013,05,04,17,35,25.10
2013,05,04,17,36,25.10
2013,05,04,17,37,25.10
2013,05,04,17,38,25.00
2013,05,04,17,39,25.00
2013,05,04,17,40,25.00